Weather History for Big Piney, WY

Change the Weather History Date:

Thursday, August 1, 2013

  Actual Average Record
Temperature  
Mean Temperature 65 °F 63 °F  
Max Temperature 86 °F 82 °F 90 °F (2008)
Min Temperature 44 °F 43 °F 33 °F (1995)
Degree Days  
Heating Degree Days 0 3  
Month to date heating degree days 0 3  
Since 1 June heating degree days 241 425  
Since 1 July heating degree days 24 120  
Cooling Degree Days 0 1  
Month to date cooling degree days 0 1  
Year to date cooling degree days 77 25  
Since 1 June cooling degree days 77 25  
Growing Degree Days 16 (Base 50)    
Moisture  
Dew Point 42 °F    
Average Humidity 49    
Maximum Humidity 86    
Minimum Humidity 12    
Precipitation  
Precipitation 0.05 in 0.02 in 0.55 in (2005)
Month to date precipitation 0.05 0.02  
Year to date precipitation 2.64 3.99  
Sea Level Pressure  
Sea Level Pressure 29.92 in    
Wind  
Wind Speed 9 mph (SW)    
Max Wind Speed 30 mph    
Max Gust Speed 36 mph    
Visibility 10 miles    
Events Rain , Thunderstorm    
T = Trace of Precipitation, MM = Missing Value Source: NWS Daily Summary

Daily Weather History Graph

Daily Weather History Graph

Search for Another Location

Airport:

Trip Planner

Search our weather history database for the weather conditions in past years. The results will help you decide how hot, cold, wet, or windy it might be!

Date:

Astronomy

Aug. 01, 2013 Rise Set
Actual Time 6:12 AM MDT 8:40 PM MDT
Civil Twilight 5:40 AM MDT 9:11 PM MDT
Nautical Twilight 5:01 AM MDT 9:51 PM MDT
Astronomical Twilight 4:16 AM MDT 10:35 PM MDT
Moon 1:50 AM MDT (8/1) 4:52 PM MDT (8/1)
Length of Visible Light 15h 31m
Length of Day
14h 27m
Waning Crescent, 23% of the Moon is Illuminated
Aug 1
Waning Crescent
Aug 6
New
Aug 14
First Quarter
Aug 20
Full
Aug 28
Last Quarter

Hourly Weather History & Observations

Time (MDT) Temp. Dew Point Humidity Pressure Visibility Wind Dir Wind Speed Gust Speed Precip Events Conditions
12:53 AM 52.0 °F 44.1 °F 74% 30.01 in 10.0 mi NW 9.2 mph - N/A   Clear
1:07 AM 51.8 °F 44.6 °F 76% 30.29 in 10.0 mi NNW 8.1 mph - N/A   Partly Cloudy
1:53 AM 50.0 °F 43.0 °F 77% 30.01 in 10.0 mi NNW 6.9 mph - N/A   Clear
2:53 AM 51.1 °F 43.0 °F 74% 29.99 in 10.0 mi ENE 3.5 mph - N/A   Clear
3:53 AM 48.0 °F 43.0 °F 83% 29.99 in 10.0 mi East 4.6 mph - N/A   Clear
4:53 AM 48.0 °F 43.0 °F 83% 29.97 in 10.0 mi East 6.9 mph - N/A   Clear
5:53 AM 46.9 °F 42.1 °F 83% 29.98 in 10.0 mi East 4.6 mph - N/A   Clear
6:53 AM 46.0 °F 42.1 °F 86% 30.00 in 10.0 mi Calm Calm - N/A   Clear
7:53 AM 50.0 °F 43.0 °F 77% 30.00 in 10.0 mi Calm Calm - N/A   Clear
8:53 AM 59.0 °F 44.1 °F 58% 29.99 in 10.0 mi Calm Calm - N/A   Clear
9:53 AM 64.9 °F 43.0 °F 45% 29.98 in 10.0 mi SE 5.8 mph - N/A   Clear
10:53 AM 71.1 °F 43.0 °F 36% 29.94 in 10.0 mi SSW 4.6 mph - N/A   Clear
11:53 AM 75.9 °F 44.1 °F 32% 29.91 in 10.0 mi SSW 6.9 mph - N/A   Partly Cloudy
12:53 PM 80.1 °F 37.0 °F 21% 29.88 in 10.0 mi Variable 5.8 mph - N/A   Partly Cloudy
1:53 PM 81.0 °F 35.1 °F 19% 29.85 in 10.0 mi WSW 6.9 mph - N/A   Partly Cloudy
2:53 PM 82.0 °F 34.0 °F 18% 29.82 in 10.0 mi WSW 11.5 mph - N/A   Clear
3:53 PM 84.0 °F 35.1 °F 17% 29.80 in 10.0 mi West 12.7 mph 23.0 mph N/A   Mostly Cloudy
4:53 PM 86.0 °F 28.0 °F 12% 29.78 in 10.0 mi West 23.0 mph 31.1 mph N/A   Clear
5:53 PM 84.0 °F 33.1 °F 16% 29.77 in 10.0 mi WSW 15.0 mph 23.0 mph N/A   Clear
6:53 PM 81.0 °F 33.1 °F 18% 29.77 in 10.0 mi West 12.7 mph 18.4 mph N/A   Partly Cloudy
7:53 PM 77.0 °F 37.0 °F 24% 29.76 in 10.0 mi West 10.4 mph - N/A   Clear
8:24 PM 73.4 °F 44.6 °F 36% 30.06 in 10.0 mi South 19.6 mph 26.5 mph N/A   Clear
8:53 PM 66.9 °F 46.0 °F 47% 29.78 in 9.0 mi SSW 21.9 mph 35.7 mph 0.00 in Rain Light Rain
9:53 PM 62.1 °F 51.1 °F 67% 29.81 in 10.0 mi SSW 12.7 mph - 0.01 in   Mostly Cloudy
10:24 PM 62.6 °F 50.0 °F 63% 30.12 in 10.0 mi SSW 15.0 mph - N/A Thunderstorm Mostly Cloudy
10:53 PM 61.0 °F 51.1 °F 70% 29.81 in 10.0 mi South 6.9 mph - 0.00 in Thunderstorm Partly Cloudy
11:53 PM 59.0 °F 53.1 °F 81% 29.78 in 2.5 mi South 13.8 mph 23.0 mph 0.04 in Rain , Thunderstorm Light Thunderstorms and Rain